Wind_Speed
7 4 3 2 1 1 2 2 2 3 3 4 5 6 7 8 9 9 10 11 10 11 11 11 11 11 10 10 9 9 9 9 10
7 6 5 3 2 2 1 1 2 2 3 5 6 7 8 8 10 8 8 9 10 11 11 12 12 11 12 12 10 9 9 8 7
7 7 6 5 5 4 3 2 2 2 3 4 5 7 8 9 9 9 9 9 9 11 12 12 13 13 13 13 10 7 7 9 9
6 6 6 6 5 4 3 3 2 3 4 5 6 8 9 9 9 9 10 10 10 12 14 13 14 14 14 14 14 14 14 11 10
5 6 6 6 6 5 5 4 5 5 5 6 7 10 10 10 11 12 13 14 12 14 14 15 15 15 16 15 15 16 17 18 18
5 5 6 7 7 6 6 6 7 8 9 9 10 12 12 11 12 13 14 15 15 15 16 17 18 17 16 16 16 17 18 18 19
6 6 7 8 8 9 9 9 10 10 11 11 12 13 13 12 13 15 16 18 18 16 17 17 17 17 15 15 16 17 17 18 19
7 7 7 8 9 11 11 12 13 13 12 11 13 15 16 14 14 16 17 19 20 17 17 16 18 17 16 16 15 16 17 17 18
11 9 9 9 10 12 13 13 14 14 14 15 15 16 18 17 17 17 18 18 19 17 17 17 17 18 17 17 16 16 17 18 19
13 12 11 13 12 13 13 14 15 16 15 15 17 18 19 18 18 17 18 18 18 18 18 18 18 18 18 18 18 18 19 20 21
14 14 15 15 17 17 16 16 16 17 17 17 17 18 19 20 19 17 17 18 18 18 19 19 19 19 20 20 20 21 21 22 23
15 16 17 17 18 19 19 19 19 18 17 18 18 18 19 20 18 18 17 18 18 19 20 20 21 21 22 23 24 24 24 25 26
20 20 20 21 21 21 21 20 20 19 19 17 17 17 17 18 18 17 18 19 19 20 22 22 23 24 26 27 28 29 29 29 30
24 24 23 22 22 23 21 21 20 20 19 17 15 16 17 17 17 18 19 20 20 21 22 24 26 27 29 30 31 32 33 33 34
26 26 23 22 22 22 21 20 18 19 19 17 15 15 16 17 18 19 20 21 23 24 25 26 28 29 31 32 33 34 35 36 36
24 26 24 23 23 22 20 20 19 20 20 17 16 15 15 17 18 20 22 23 25 26 27 29 30 31 32 34 35 36 37 37 38
24 25 24 24 24 23 20 20 22 23 22 19 17 16 16 18 20 22 25 28 29 30 31 32 32 33 35 36 37 38 39 39 39
25 25 27 25 24 24 23 22 24 23 22 21 19 19 20 22 23 25 28 31 32 33 34 34 35 35 36 37 38 38 38 38 40
26 27 29 27 26 26 25 25 22 22 23 22 20 21 22 24 27 28 32 33 35 36 36 37 38 39 39 39 38 38 39 40 42
28 30 29 30 29 28 28 29 25 27 27 24 24 24 26 28 30 31 33 35 37 38 38 39 40 41 42 41 41 41 42 42 44
Wind_Direction
17 11 354 342 334 326 318 321 323 319 303 294 288 287 288 288 293 297 299 294 296 296 297 298 300 301 300 299 296 295 297 294 288
30 32 31 20 6 353 352 343 322 300 298 294 293 290 292 300 295 313 302 301 301 305 300 298 302 300 302 293 292 295 295 292 291
29 36 38 53 60 61 61 57 32 354 326 308 300 297 305 302 319 318 310 306 304 303 300 307 303 304 297 296 297 311 304 291 283
27 31 32 29 33 33 29 12 343 333 325 316 309 308 306 320 317 312 306 304 305 301 300 303 300 297 294 292 288 282 279 277 276
10 18 18 25 15 3 351 333 324 323 318 310 316 308 310 317 315 311 306 305 308 301 307 302 299 294 291 291 287 281 279 275 271
354 4 8 6 360 354 339 327 321 319 316 322 317 310 312 314 307 306 305 306 304 304 303 298 293 290 291 290 287 284 279 275 274
327 342 350 348 346 336 336 326 319 319 315 321 311 309 308 313 311 309 307 305 300 305 299 294 292 291 290 288 285 283 282 281 279
289 312 323 329 328 329 330 323 320 314 309 309 307 307 310 313 310 307 305 303 303 304 295 292 290 290 290 287 285 283 284 283 282
282 292 308 315 312 319 317 315 315 310 310 310 310 307 307 311 310 308 303 302 302 302 295 293 289 288 287 284 284 283 284 283 282
277 287 297 302 304 305 302 303 305 304 303 303 305 305 306 308 309 308 304 302 300 299 295 291 289 288 287 286 285 284 284 285 284
276 285 288 295 301 307 302 299 298 298 298 299 300 301 304 309 311 310 306 302 299 297 294 292 290 289 288 287 285 285 285 285 285
274 277 286 295 300 303 300 295 291 288 287 291 295 300 305 308 311 310 307 300 299 295 292 291 290 289 288 288 287 286 285 285 286
276 282 287 292 298 298 292 286 281 278 279 284 292 296 301 306 310 312 307 303 300 297 294 292 291 289 288 288 287 286 286 286 286
279 278 280 289 294 292 281 276 274 274 275 280 286 293 299 305 310 313 313 310 306 301 296 295 292 290 289 289 288 288 287 287 286
275 274 278 287 292 290 277 272 273 272 272 277 284 290 299 307 314 316 315 315 311 307 304 298 295 292 290 289 288 288 288 288 288
274 272 276 286 288 285 274 275 275 283 278 278 280 289 299 307 311 315 316 314 310 308 304 300 296 293 291 290 290 290 289 288 287
273 269 273 283 286 282 279 277 282 281 279 274 280 287 293 300 306 312 315 317 315 312 309 304 300 297 294 293 292 292 291 291 290
267 267 271 277 279 275 273 278 279 278 265 270 279 288 294 301 307 312 313 316 317 313 309 305 300 296 294 293 292 291 290 289 289
267 261 265 271 275 271 262 273 279 276 269 272 279 287 296 302 307 312 314 315 315 312 309 304 300 298 297 295 294 291 290 290 288
269 263 261 263 266 264 264 270 273 276 268 271 279 287 295 301 305 307 310 311 312 310 308 305 302 300 298 298 296 294 291 288 285
Height
3163 3162 3162 3163 3163 3163 3163 3163 3163 3163 3163 3163 3163 3163 3162 3162 3162 3161 3162 3161 3161 3160 3160 3159 3159 3159 3158 3157 3156 3157 3157 3157 3156
3163 3162 3162 3163 3163 3163 3163 3163 3163 3163 3163 3163 3162 3162 3161 3161 3160 3161 3160 3159 3159 3158 3158 3157 3157 3156 3156 3155 3155 3155 3155 3155 3154
3164 3163 3163 3162 3162 3162 3163 3163 3163 3163 3163 3162 3161 3160 3160 3159 3160 3159 3159 3158 3158 3157 3156 3155 3155 3155 3154 3154 3154 3153 3153 3153 3153
3164 3163 3163 3163 3163 3162 3162 3162 3162 3162 3161 3161 3160 3159 3158 3159 3158 3158 3157 3156 3156 3154 3154 3153 3153 3152 3152 3151 3151 3151 3151 3151 3151
3164 3164 3163 3162 3162 3162 3162 3162 3161 3161 3160 3159 3159 3157 3157 3157 3155 3155 3154 3153 3153 3152 3152 3151 3150 3149 3149 3148 3148 3148 3148 3148 3148
3163 3163 3163 3162 3162 3162 3161 3160 3160 3160 3158 3157 3156 3154 3154 3155 3154 3152 3151 3150 3150 3150 3148 3147 3146 3145 3145 3144 3144 3143 3143 3143 3143
3162 3162 3162 3162 3161 3161 3160 3159 3158 3158 3156 3155 3154 3153 3153 3153 3152 3150 3149 3148 3146 3147 3145 3143 3142 3141 3141 3140 3140 3139 3139 3139 3139
3160 3160 3160 3160 3159 3158 3158 3157 3156 3155 3155 3154 3153 3151 3150 3151 3149 3147 3145 3144 3142 3143 3141 3139 3139 3138 3137 3137 3136 3135 3135 3134 3134
3158 3158 3158 3157 3157 3156 3155 3155 3154 3153 3152 3151 3150 3149 3147 3147 3146 3144 3142 3140 3138 3138 3137 3136 3135 3134 3134 3133 3132 3132 3131 3130 3129
3155 3155 3155 3154 3154 3153 3153 3152 3151 3150 3149 3148 3147 3145 3143 3144 3143 3141 3139 3137 3135 3134 3133 3132 3131 3130 3130 3129 3128 3127 3126 3125 3124
3151 3151 3152 3152 3151 3150 3148 3148 3147 3146 3145 3145 3144 3142 3141 3140 3139 3137 3135 3133 3132 3130 3130 3129 3127 3126 3126 3124 3123 3122 3121 3120 3118
3147 3148 3147 3146 3146 3146 3145 3145 3143 3142 3142 3141 3141 3139 3137 3135 3135 3133 3132 3129 3128 3127 3126 3125 3124 3122 3120 3119 3118 3116 3115 3113 3112
3143 3143 3142 3142 3142 3141 3141 3140 3140 3139 3138 3137 3137 3136 3134 3132 3130 3130 3128 3126 3124 3122 3121 3120 3119 3117 3114 3113 3111 3110 3108 3107 3105
3138 3138 3138 3137 3138 3137 3136 3136 3135 3134 3134 3133 3132 3131 3130 3129 3126 3125 3123 3121 3120 3118 3116 3114 3112 3110 3108 3106 3104 3102 3101 3099 3097
3133 3133 3133 3133 3132 3132 3131 3131 3131 3130 3129 3129 3128 3127 3126 3124 3122 3121 3119 3117 3114 3112 3110 3108 3106 3103 3100 3098 3096 3095 3093 3090 3088
3127 3127 3128 3128 3127 3127 3126 3126 3126 3126 3125 3125 3124 3123 3122 3120 3119 3117 3115 3113 3110 3108 3105 3102 3099 3096 3093 3090 3088 3086 3083 3081 3079
3121 3122 3122 3122 3122 3121 3122 3122 3121 3121 3121 3121 3119 3119 3119 3116 3115 3112 3109 3107 3104 3101 3098 3095 3091 3088 3085 3082 3079 3076 3073 3071 3068
3116 3116 3116 3117 3116 3116 3117 3117 3117 3116 3115 3115 3115 3114 3113 3111 3109 3106 3103 3100 3097 3094 3091 3086 3083 3079 3076 3073 3070 3066 3064 3061 3058
3110 3110 3110 3111 3111 3111 3112 3112 3112 3111 3110 3110 3109 3108 3106 3104 3103 3100 3096 3094 3090 3086 3083 3078 3074 3069 3065 3062 3060 3057 3054 3052 3049
3102 3104 3104 3105 3106 3106 3107 3106 3107 3106 3105 3104 3103 3101 3099 3097 3095 3094 3091 3087 3083 3078 3074 3069 3064 3059 3054 3051 3048 3046 3044 3042 3038